Погода в Кокшетау

Казахстан     53°17′04″N   69°22′39″E
темп.,
°C
ветер,
м/с
пор.,
м/с
влажн.,
%
обл.,
%
осадки,
мм/ч
давл.,
гПа
погр.,
м
1 марта, пн
пн100:00−3ююв2398100 3.1 1004130
03:000юз71395100 1.2 1004655
06:00−1зюз61294100 1.8 1005519
09:00−10ссз4698100 0.6 1007168
12:00−10сз349396 0.9 1009249
15:00−10сз349399 0.1 1011323
18:00−12сз3495100 0.1 1014246
21:00−15сз229783 0.1 101621
2 марта, вт
вт200:00−17зюз229882 0.1 101720
03:00−17зюз229794 0.1 101722
06:00−16зюз229689 0.1 101742
09:00−16зюз229694 0.1 101676
12:00−12зюз349093 0.2 1016323
15:00−10зюз3589100 0.1 1015460
18:00−11зюз3694100 0.1 1014174
21:00−14юз489391 0.1 1015187
3 марта, ср
ср300:00−17юз5109177 0.1 1015248
03:00−18ююз5129136 0.0 1015280
06:00−19ююз7138831 0.0 1015318
09:00−15юз81489100 0.0 1014408
12:00−11юз81587100 0.1 1013546
15:00−8юз81586100 0.0 1012654
18:00−6юз81587100 0.1 1011767
21:00−5юз71687100 0.1 1010824
4 марта, чт
чт400:00−4юз71586100 0.1 1009761
03:00−3юз61588100 0.0 1007722
06:00−3ююз71686100 0.0 1006682
09:00−2ююз71588100 0.0 1005870
12:000юз101685100 0.0 10031134
15:00+1юз91585100 0.1 10031224
18:00−1юз7148895 0.2 1004878
21:00−2юз7148898 0.0 1005540
5 марта, пт
пт500:00−6зсз489299 0.7 1008389
03:00−13зюз459333 0.0 100987
06:00−14юз5119017 0.0 1012167
09:00−11юз817830 0.0 1012362
12:00−6юз12207934 0.0 1011839
15:00−6юз132185100 0.0 1011818
18:00−5юз122082100 0.0 1012974
21:00−4юз11208395 0.0 1012938